Location: New Frontier Mobile Home Park
(32.8448°N, 116.9675°W)
Time: 23:06:27
(UTC+00:00)

Cosmos 2297 - Pass Details

Date: 14 July 2020
Orbit: 835 x 859 km, 71.0° (Epoch: 05 August)

Event Time Altitude Azimuth Distance (km) Brightness Sun altitude
Rises 05:33:10 0° 346° (NNW) 3,431 7.9 -26.0°
Reaches altitude 10° 05:35:45 10° 353° (N) 2,488 6.9 -26.4°
Enters shadow 05:41:12 45° 65° (ENE) 1,139 4.2 -27.0°
